« Back
NWS Peachtree City, Ga » Text Product » GA Regional Weather Roundup


Printer-friendly Version
Current Version              Previous Versions:   1  2  3  4  5  6  7  8  9  

Regional Weather Roundup

597
ASUS42 KFFC 312303
RWRGA
WEATHER ROUNDUP FOR GEORGIA
NATIONAL WEATHER SERVICE PEACHTREE CITY GA
700 PM EDT FRI OCT 31 2014

NOTE: "FAIR" INDICATES FEW OR NO CLOUDS BELOW 12,000 FEET WITH NO
SIGNIFICANT WEATHER AND/OR OBSTRUCTIONS TO VISIBILITY.

* = USE WITH CAUTION. THE STATIONS MARKED WITH AN ASTERISK MAY NOT
REPORT WEATHER SUCH AS PRECIPITATION, FOG, OR THUNDER AND ARE NOT
QUALITY CONTROLLED BY NWS.

THE REMARK "TC" DENOTES TEMPERATURE READING IN DEGREES CELSIUS.

GAZ001>058-010000-
NORTH GEORGIA

CITY           SKY/WX    TMP DP  RH WIND       PRES   REMARKS
ATLANTA        MOCLDY    57  42  57 NW9G20    29.89S
ATHENS         CLOUDY    57  40  52 W13G22    29.85R
CHAMBLEE       PTCLDY    54  41  61 NW8       29.89S
PEACHTREE CITY CLOUDY    58  43  57 W6        29.91S
ROME           LGT RAIN  52  47  83 NW8       29.94R
WEST ATLANTA   CLOUDY    56  42  59 NW10      29.90S
GAINESVILLE    MOCLDY    53  40  61 NW13G21   29.88S
CARTERSVILLE   CLOUDY    52  46  80 CALM      29.93R


CITY           SKY/WX    TMP DP  RH WIND       PRES   REMARKS
DALTON*        CLOUDY    48  46  93 NW10G20   29.95R
LAWRENCEVILLE* MOCLDY    55  37  50 W12       29.87S
MARIETTA       CLOUDY    55  44  64 W9        29.90R
KENNESAW*      LGT RAIN  54  39  58 NW9       29.92R
$$

GAZ059>098-102>109-010000-
CENTRAL GEORGIA

CITY           SKY/WX    TMP DP  RH WIND       PRES   REMARKS
AUGUSTA-BUSH   CLOUDY    66  42  41 W9        29.80R
AUGUSTA-DANIEL CLOUDY    66  41  40 W8        29.81R
COLUMBUS       MOCLDY    62  39  42 N10       29.92R
MACON          PTCLDY    59  42  53 W9        29.88R
ROBINS AFB     CLEAR     61  43  51 NW9       29.87R


CITY           SKY/WX    TMP DP  RH WIND       PRES   REMARKS
LAGRANGE*      CLOUDY    61  48  61 NW7       29.92S
SYLVANIA*      CLOUDY    66  59  77 CALM      29.79S
MILLEDGEVILLE* CLOUDY    61  46  59 NW8       29.87R
$$

GAZ099>101-110>166-010000-
SOUTH GEORGIA

CITY           SKY/WX    TMP DP  RH WIND       PRES   REMARKS
SAVANNAH       PTCLDY    66  50  56 CALM      29.80S
VALDOSTA       CLEAR     63  41  44 VRB3      29.86R
ALMA           CLEAR     65  40  39 W5        29.83R
ST SIMONS      PTCLDY    67  50  54 CALM      29.81R
FT STEWART     CLEAR     62  49  63 CALM      29.79S
ALBANY         CLEAR     63  45  51 NW3       29.90R
HUNTER AFB     PTCLDY    63  52  67 SW2       29.78S
MOODY AFB      CLEAR     64  42  44 W7        29.86R
BRUNSWICK      CLEAR     61  52  72 CALM      29.82R


CITY           SKY/WX    TMP DP  RH WIND       PRES   REMARKS
BAINBRIDGE*    CLEAR     68  45  42 NW5       29.89R
MOULTRIE*      PTCLDY    64  43  45 NW5       29.89R
VIDALIA*       CLOUDY    66  43  42 W3        29.82S
WAYCROSS*      CLEAR     69  45  41 W3        29.82S
DOUGLAS*       PTCLDY    68  37  32 NW5       29.86R
$$



USA.gov is the U.S. government's official web portal to all federal, state and local government web resources and services.